Lake Arlington Weather Center

Moon Phase Calendar



Lake Arlington Water Level
Online Cameras

 


      

Current Conditions in Dalworthington Gardens
4/15/2021 2:33:47 AM

59°F
Feels Like 60
Clouds
Humidity
100%
Pressure
30.06"
Wind
9.2 mph (NE)
Dew Point
59°F
UV Index
0/10 (Low)
Visibility
6 mi

Hourly Forecast

Date & Time Thu, Apr 15
2:00 AM
Thu, Apr 15
3:00 AM
Thu, Apr 15
4:00 AM
Thu, Apr 15
5:00 AM
Thu, Apr 15
6:00 AM
Thu, Apr 15
7:00 AM
Thu, Apr 15
8:00 AM
Thu, Apr 15
9:00 AM
Thu, Apr 15
10:00 AM
Thu, Apr 15
11:00 AM
Thu, Apr 15
12:00 PM
Thu, Apr 15
1:00 PM
Thu, Apr 15
2:00 PM
Thu, Apr 15
3:00 PM
Thu, Apr 15
4:00 PM
Thu, Apr 15
5:00 PM
Thu, Apr 15
6:00 PM
Thu, Apr 15
7:00 PM
Thu, Apr 15
8:00 PM
Thu, Apr 15
9:00 PM
Thu, Apr 15
10:00 PM
Thu, Apr 15
11:00 PM
Fri, Apr 16
12:00 AM
Fri, Apr 16
1:00 AM
Fri, Apr 16
2:00 AM
Fri, Apr 16
3:00 AM
Fri, Apr 16
4:00 AM
Fri, Apr 16
5:00 AM
Fri, Apr 16
6:00 AM
Fri, Apr 16
7:00 AM
Fri, Apr 16
8:00 AM
Fri, Apr 16
9:00 AM
Fri, Apr 16
10:00 AM
Fri, Apr 16
11:00 AM
Fri, Apr 16
12:00 PM
Fri, Apr 16
1:00 PM
Fri, Apr 16
2:00 PM
Fri, Apr 16
3:00 PM
Fri, Apr 16
4:00 PM
Fri, Apr 16
5:00 PM
Fri, Apr 16
6:00 PM
Fri, Apr 16
7:00 PM
Fri, Apr 16
8:00 PM
Fri, Apr 16
9:00 PM
Fri, Apr 16
10:00 PM
Fri, Apr 16
11:00 PM
Sat, Apr 17
12:00 AM
Sat, Apr 17
1:00 AM
Condition
Rain

Clouds

Clouds

Clouds

Clouds

Clouds

Clouds

Clouds

Clouds

Clouds

Clouds

Clouds

Clouds

Clouds

Clouds

Rain

Rain

Rain

Rain

Clouds

Rain

Rain

Rain

Clouds

Rain

Rain

Rain

Rain

Rain

Rain

Rain

Rain

Rain

Rain

Rain

Rain

Rain

Rain

Rain

Rain

Rain

Rain

Clouds

Clouds

Clouds

Clouds

Clouds

Clouds
Temperature 59°F59°F59°F59°F58°F58°F58°F58°F60°F62°F63°F64°F65°F65°F64°F63°F64°F63°F63°F62°F61°F61°F60°F60°F60°F60°F60°F59°F59°F59°F60°F61°F61°F62°F63°F63°F64°F67°F72°F75°F75°F71°F67°F60°F55°F52°F50°F48°F
Feels Like 60°F60°F59°F59°F58°F57°F57°F57°F59°F61°F62°F63°F64°F64°F64°F63°F64°F63°F62°F62°F61°F61°F60°F60°F60°F60°F60°F60°F59°F60°F60°F61°F61°F62°F63°F64°F64°F67°F72°F75°F75°F71°F67°F59°F54°F50°F48°F42°F
Cloudiness 92%90%92%94%96%98%100%100%100%100%100%100%100%100%100%100%100%100%100%100%100%100%100%100%100%100%100%100%100%100%100%100%100%100%100%100%100%100%100%100%85%78%23%17%35%38%45%50%
Visibility 6 mi6 mi6 mi6 mi6 mi6 mi6 mi6 mi6 mi6 mi6 mi6 mi6 mi6 mi6 mi6 mi6 mi6 mi6 mi6 mi6 mi6 mi6 mi6 mi6 mi6 mi6 mi6 mi6 mi4 mi0 mi0 mi0 mi1 mi0 mi0 mi1 mi6 mi6 mi6 mi6 mi6 mi6 mi6 mi6 mi6 mi6 mi6 mi
Precipitation 31%19%15%10%10%5%0%0%1%5%5%5%2%5%16%21%29%42%95%80%90%71%74%80%60%72%75%99%100%100%100%100%100%100%100%100%71%90%94%97%93%90%36%28%24%12%12%11%
Humidity 97%100%97%95%92%88%82%77%69%65%63%63%64%64%69%73%73%80%85%86%88%88%90%93%94%95%95%95%96%97%97%97%97%96%97%96%97%93%78%65%64%69%68%79%77%75%75%76%
Dew Point 59°F59°F58°F57°F56°F54°F52°F51°F50°F50°F50°F51°F52°F53°F54°F54°F55°F57°F58°F58°F57°F57°F57°F57°F58°F58°F58°F58°F58°F58°F59°F60°F60°F61°F62°F62°F63°F64°F64°F62°F62°F60°F56°F53°F48°F44°F42°F41°F
Pressure 30.06"30.06"30.06"30.06"30.03"30.06"30.09"30.06"30.06"30.06"30.03"30"29.97"29.97"29.91"29.91"29.91"29.91"29.94"29.91"29.91"29.91"29.85"29.83"29.85"29.83"29.8"29.8"29.77"29.77"29.77"29.77"29.77"29.77"29.77"29.74"29.74"29.71"29.68"29.65"29.68"29.71"29.77"29.85"29.94"29.97"29.97"30"
Wind Speed 9.7 mph8.9 mph8.4 mph9.5 mph10.1 mph10.8 mph10.2 mph11.4 mph11.6 mph10.8 mph11.5 mph13.1 mph11.7 mph10.3 mph10.6 mph8.7 mph6.9 mph5.3 mph2.9 mph8.2 mph6.2 mph8.1 mph10.4 mph9.7 mph5.8 mph6.2 mph8.3 mph7.9 mph10.1 mph9.7 mph10.6 mph11 mph11.6 mph9.7 mph7.5 mph8.1 mph7.1 mph6.6 mph6.7 mph4.8 mph6.9 mph12.8 mph12.4 mph21.6 mph20.4 mph18.6 mph17.2 mph16.5 mph
Wind
Direction
70°
ENE
66°
ENE
65°
ENE
58°
ENE
59°
ENE
56°
NE
59°
ENE
69°
ENE
75°
ENE
65°
ENE
72°
ENE
79°
E
81°
E
99°
E
98°
E
92°
E
94°
E
106°
ESE
154°
SSE
117°
ESE
106°
ESE
111°
ESE
133°
SE
118°
ESE
114°
ESE
103°
ESE
107°
ESE
114°
ESE
122°
ESE
133°
SE
134°
SE
144°
SE
136°
SE
150°
SSE
159°
SSE
172°
S
182°
S
188°
S
241°
WSW
298°
WNW
333°
NNW
344°
NNW
332°
NNW
339°
NNW
334°
NNW
341°
NNW
344°
NNW
346°
NNW

Daily Forecast

Date High Low Precip. Humidity
Today
Apr 15

Rain
65 °F
58 °F
95%
63%
Friday
Apr 16

Rain
75 °F
55 °F
100%
96%
Saturday
Apr 17

Clouds
60 °F
46 °F
11%
46%
Sunday
Apr 18

Clear
65 °F
46 °F
0%
37%
Monday
Apr 19

Clouds
71 °F
51 °F
0%
29%
Tuesday
Apr 20

Clear
79 °F
53 °F
0%
35%
Wednesday
Apr 21

Clouds
70 °F
46 °F
0%
36%
Thursday
Apr 22

Rain
69 °F
55 °F
100%
67%
Friday
Apr 23

Rain
63 °F
52 °F
100%
62%
Saturday
Apr 24

Rain
70 °F
48 °F
58%
30%
Sunday
Apr 25

Clouds
67 °F
46 °F
0%
25%
Monday
Apr 26

Clear
75 °F
50 °F
0%
35%
Tuesday
Apr 27

Rain
74 °F
58 °F
40%
49%
Wednesday
Apr 28

Rain
80 °F
66 °F
65%
80%
Thursday
Apr 29

Clear
82 °F
59 °F
1%
24%
Friday
Apr 30

Clear
87 °F
61 °F
0%
30%

Temperature 8-14 Day Outlook



Precipitation 8-14 Day Outlook




Quick Links
Lake Arlington News
Lake Arlington Photos
Lake Arlington Videos




About Us
Contact Us
Site Map
Search Site
Advertise With Us
   
Arlington.LakesOnline.com
THE LAKE ARLINGTON WEBSITE

Copyright 2021, Lakes Online
Privacy    |    Legal